Regional Weather Roundup
Issued by NWS

Home | Current Version | Previous Version | Text Only | Print | Product List | Glossary On
Versions: 1 2 3 4 5 6 7 8 9 10 11 12 13 14 15 16 17 18 19 20 21 22 23 24 25 26 27 28 29 30 31 32 33 34 35 36 37 38 39 40 41 42 43 44 45 46 47 48 49 50
000
ASUS42 KTBW 062317
RWRFL
FLORIDA REGIONAL WEATHER ROUNDUP
NATIONAL WEATHER SERVICE TAMPA BAY RUSKIN FL
700 PM EDT MON JUL 06 2015

NOTE: "FAIR" INDICATES FEW OR NO CLOUDS BELOW 12,000 FEET WITH NO
SIGNIFICANT WEATHER AND/OR OBSTRUCTIONS TO VISIBILITY.


FLZ001>010-012>015-112-114-115-070000-
PANHANDLE FLORIDA

CITY           SKY/WX    TMP DP  RH WIND       PRES   REMARKS
PENSACOLA      MOSUNNY   86  72  62 S8        30.10F
PENSACOLA NAS  MOSUNNY   85  67  54 SW10      30.10F
MILTON NAS     MOSUNNY   89  69  51 W6        30.11
CRESTVIEW      SUNNY     89  69  51 NW6       30.12F
DUKE FIELD     MOSUNNY   89  69  50 NW6       30.10F
VALPARAISO     MOSUNNY   86  72  62 S9        30.10F
MARY ESTHER    SUNNY     86  71  60 S7        30.09F
TRI COUNTY     FAIR      88  69  53 CALM      30.11S
PANAMA CITY    FAIR      86  70  58 S7        30.10S
TYNDALL AFB    SUNNY     84  74  72 W8        30.11F
APALACHICOLA   MOSUNNY   90  72  55 NW8       30.10F HX  97

STATION/POSITION SKY/WX   TEMP    WIND        PRES    WAVE   SWELL
                          AIR SEA DIR/SP/G            HT/PER HT/PER
                          (F)     (DEG/KT/KT) (MB)    (FT/S) (FT/S)
30.1N   87.6W              86 87  250/  4/  4 1019.3F   1/ 6
29.2N   88.2W              85 89  130/  6/  8 1020.0F   1/ 6   2/ 6
28.8N   86.0W              83 87  350/  4/  6 1020.3F   2/10   2/10
PANAMA CITY BEAC           82 82  250/  7/  8 1019.8F
CAPE SAN BLAS    NOT AVBL
TOWER C                    80     280/  6/  7 1019.5F
28.5N   84.5W              84 86  360/ 10/ 12 1019.8F   2/ 5   2/ 5

$$
FLZ011-016>038-118-127-128-134-139-239-070000-
NORTH FLORIDA

CITY           SKY/WX    TMP DP  RH WIND       PRES   REMARKS
MARIANNA       SUNNY     87  70  56 NW5       30.10F
TALLAHASSEE    MOSUNNY   89  72  56 NW10      30.10F HX  96
PERRY          MOSUNNY   83  71  66 W5        30.11F
CROSS CITY       N/A     90  66  45 W3        30.10F
LAKE CITY      FAIR      86  70  58 S6        30.11S
GAINESVILLE    CLOUDY    75  69  81 CALM      30.13R
MAYPORT NAS    PTSUNNY   80  72  76 S16       30.12R
JACKSONVILLE   PTSUNNY   82  72  71 SE12      30.10S
JAX NAS        CLOUDY    84  70  62 SE17      30.11R THUNDER
JAX CRAIG      CLOUDY    78  71  79 SE15      30.11S THUNDER
JAX CECIL      PTSUNNY   82  73  74 SE14      30.11R
FERNANDINA BEA FAIR      82  72  69 SE13      30.10S
ST AUGUSTINE   CLOUDY    80  72  76 W5        30.15R

STATION/POSITION SKY/WX   TEMP    WIND        PRES    WAVE   SWELL
                          AIR SEA DIR/SP/G            HT/PER HT/PER
                          (F)     (DEG/KT/KT) (MB)    (FT/S) (FT/S)
SHELL POINT                86     240/  2/  4   N/A
KEATON BEACH               83     290/  8/  9 1019.6F
CEDAR KEY                  86     310/  7/  9 1020.4R
FERNANDINA                 81 83  150/  8/ 15 1019.1F
30.7N   81.3W                 78                N/A     2/ 9
MAYPORT                    80 80  140/  6/ 13 1019.9F
31.4N   80.9W              79 80  160/ 12/ 14 1019.6F   2/ 8   2/ 8
ST AUGUSTINE               77 76  220/  7/  9 1021.4R

$$
FLZ040-043>046-052-053-057-058-063-144-070000-
INTERIOR CENTRAL FLORIDA

CITY           SKY/WX    TMP DP  RH WIND       PRES   REMARKS
OCALA          MOSUNNY   79  70  73 S5        30.14R
THE VILLAGES     N/A    N/A N/A N/A CALM      30.05R
LEESBURG       CLOUDY    76  72  87 E7        30.16R
SANFORD        CLOUDY    74  68  81 SE8       30.15F
ORLANDO EXEC   CLOUDY    74  71  91 SE9       30.16S
ORLANDO INTL   PTSUNNY   77  72  83 E9        30.16R THUNDER
KISSIMMEE      MOSUNNY   79  72  78 CALM      30.16F
WINTER HAVEN   CLOUDY    75  71  87 SE3       30.15F
LAKELAND       MOSUNNY   81  72  74 E6        30.14F
OKEECHOBEE     CLOUDY    81  72  74 SE6       30.13F

$$
FLZ041-047-054-059-064-141-147-070000-
EAST CENTRAL FLORIDA

CITY           SKY/WX    TMP DP  RH WIND       PRES   REMARKS
ORMOND BEACH   TSTM      72  70  94 SW6       30.13F
DAYTONA BEACH  LGT RAIN  73  70  90 S7        30.15F
DELAND           N/A     72  70  94 SE6       30.15S
NEW SMYRNA BEA PTSUNNY   77  70  78 SW10G16   30.16F
JFK SPACE CTR  LGT RAIN  75  66  73 VRB5      30.16R
TITUSVILLE     LGT RAIN  72  70  94 NW12      30.20R
CAPE CANAVERAL MOSUNNY   82  71  68 NW17G26   30.15R
PATRICK AFB    MOSUNNY   83  72  70 E7        30.13S
MELBOURNE      MOSUNNY   84  70  62 SE12      30.13S
VERO BEACH     MOSUNNY   86  74  67 E10       30.13F
FT PIERCE      PTSUNNY   85  76  74 E9        30.12F
STUART         PTSUNNY   82  70  65 CALM      30.13F HAZE

STATION/POSITION SKY/WX   TEMP    WIND        PRES    WAVE   SWELL
                          AIR SEA DIR/SP/G            HT/PER HT/PER
                          (F)     (DEG/KT/KT) (MB)    (FT/S) (FT/S)
28.5N   80.2W              84 85  100/  6/  8 1021.2R
28.9N   78.5W              82 83  210/  4/  6 1021.1R
TRIDENT PIER               84 80   80/  5/  8 1021.2R
28.4N   80.5W                 80                N/A     2/ 9
27.5N   80.2W                 83                N/A     2/ 5

$$
FLZ050-056-061-142-242-148-248-149-249-151-251-155-255-
160-260-070000-
WEST CENTRAL FLORIDA

CITY           SKY/WX    TMP DP  RH WIND       PRES   REMARKS
CRYSTAL RIVER  FAIR      86  70  58 CALM      30.13R
INVERNESS      FAIR     N/A N/A N/A CALM      30.14R
BROOKSVILLE    CLOUDY    83  70  64 CALM      30.14S
ZEPHYRHILLS    FAIR      79  70  73 CALM      30.14F
CLEARWATER     CLOUDY    86  72  62 CALM      30.12S
TAMPA INTL     CLOUDY    86  71  60 VRB3      30.13S
TAMPA EXEC     CLOUDY   N/A N/A N/A CALM      30.13F
PLANT CITY     CLOUDY    84  73  70 SE3       30.15F
MACDILL AFB    CLOUDY    86  76  72 VRB1      30.12S HX  96
PETER O KNIGHT CLOUDY    88  73  62 CALM      30.13F HX  96
ST PETERSBURG  CLOUDY    87  74  64 VRB7      30.11S HX  95
SARASOTA       CLOUDY    86  74  67 W3        30.11F
VENICE         FAIR      86  75  70 W5        30.13S HX  95

STATION/POSITION SKY/WX   TEMP    WIND        PRES    WAVE   SWELL
                          AIR SEA DIR/SP/G            HT/PER HT/PER
                          (F)     (DEG/KT/KT) (MB)    (FT/S) (FT/S)
CEDAR KEY                  86     310/  7/  9 1020.4R
28.5N   84.5W              84 86  360/ 10/ 12 1019.8F   2/ 5   2/ 5
27.3N   84.2W                 88                N/A     2/ 5
CLEARWATER BEACH NOT AVBL
MIDDLE TAMPA BAY                  290/  5/  7 1020.4F
VENICE                     88 90  280/  4/  5 1019.5F

$$
FLZ066-069-070-075>078-162-262-165-265-070000-
SOUTHWEST FLORIDA AND KEYS

CITY           SKY/WX    TMP DP  RH WIND       PRES   REMARKS
PUNTA GORDA    CLOUDY    77  71  82 CALM      30.15S
FT MYERS       CLOUDY    79  69  71 SE20G33   30.14R
SOUTHWEST INTL CLOUDY    75  70  84 SE17G30   30.15R
NAPLES         PTSUNNY   84  72  65 E17       30.12R
MARCO ISLAND   CLOUDY    75  64  69 NE9       30.12F THUNDER
MARATHON       SUNNY     86  74  67 NE8       30.10F
KEY WEST NAS   MOSUNNY   87  76  69 E15       30.10F HX  97
KEY WEST INTL  MOSUNNY   87  79  76 E10       30.10F HX 101

STATION/POSITION SKY/WX   TEMP    WIND        PRES    WAVE   SWELL
                          AIR SEA DIR/SP/G            HT/PER HT/PER
                          (F)     (DEG/KT/KT) (MB)    (FT/S) (FT/S)
VENICE                     88 90  280/  4/  5 1019.5F
NAPLES                        89              1020.8F
26.0N   85.6W              85 86   50/ 10/ 12 1019.3F   3/ 6   3/ 6
DRY TORTUGAS               86      70/  8/  9 1019.5S
NW FL BAY                  84      60/  8/ 10 1019.8
SAND KEY                   85     100/ 11/ 13 1019.3F
SOMBRERO KEY               85      90/ 14/ 15 1019.7F
LONG KEY                   84 88  130/ 12/ 14 1019.7F
MOLASSES REEF              82 86  120/  8/  9 1019.1F

$$
FLZ067-068-071>074-168-172>174-070000-
SOUTHEAST FLORIDA

CITY           SKY/WX    TMP DP  RH WIND       PRES   REMARKS
W PALM BEACH   PTSUNNY   86  74  67 SE10      30.12F
FT LAUDER-EXEC MOSUNNY   86  74  67 SE8       30.11F
FT LAUDERDALE  MOSUNNY   86  76  71 SE12      30.10F HX  96
POMPANO BEACH  MOSUNNY   87  74  64 SE9       30.11F HX  95
PEMBROKE PINES MOSUNNY   86  73  65 E12       30.11F
OPA LOCKA      MOSUNNY   86  73  65 SE12      30.10F
MIAMI          PTSUNNY   86  72  62 SE10      30.10F
WEST KENDALL   MOSUNNY   85  74  69 E9        30.10F
HOMESTEAD      MOSUNNY   84  72  66 E6        30.10S

STATION/POSITION SKY/WX   TEMP    WIND        PRES    WAVE   SWELL
                          AIR SEA DIR/SP/G            HT/PER HT/PER
                          (F)     (DEG/KT/KT) (MB)    (FT/S) (FT/S)
PORT EVERGLADES            86     140/  7/  8 1020.5R
VIRGINIA KEY               85 89  150/  7/  9 1019.9F
LAKE WORTH                 85 87  130/  6/  8 1020.2F
SETTLEMENT POINT           85     100/  4/  5 1021.0F

$$



USA.gov is the U.S. government's official web portal to all federal, state and local government web resources and services.